This is the latest recevied weather packets stored in our database for station/object F4JSG-10. If no packets are shown the sender has not sent any weather packets the latest 1 day(s).
| Time | Temp. | Humidity | Pressure | Rain* | Wind** | Luminosity | Snow |
|---|---|---|---|---|---|---|---|
| 1777781140 | 12.78° C | 62% | 989.2 hPa | - | - | - | - |
| 1777781136 | 12.78° C | 62% | 989.2 hPa | - | - | - | - |
| 1777780240 | 13.33° C | 63% | 989.1 hPa | - | - | - | - |
| 1777780235 | 13.33° C | 63% | 989.1 hPa | - | - | - | - |
| 1777779340 | 13.89° C | 58% | 989 hPa | - | - | - | - |
| 1777779335 | 13.89° C | 58% | 989 hPa | - | - | - | - |
| 1777778440 | 13.33° C | 60% | 989 hPa | - | - | - | - |
| 1777778435 | 13.33° C | 60% | 989 hPa | - | - | - | - |
| 1777777540 | 13.33° C | 62% | 989.2 hPa | - | - | - | - |
| 1777777535 | 13.33° C | 62% | 989.2 hPa | - | - | - | - |
| 1777776640 | 13.33° C | 61% | 989.2 hPa | - | - | - | - |
| 1777776635 | 13.33° C | 61% | 989.2 hPa | - | - | - | - |
| 1777775740 | 13.89° C | 64% | 989 hPa | - | - | - | - |
| 1777775735 | 13.89° C | 64% | 989 hPa | - | - | - | - |
| 1777774840 | 14.44° C | 54% | 989.1 hPa | - | - | - | - |
| 1777774835 | 14.44° C | 54% | 989.1 hPa | - | - | - | - |
| 1777773940 | 14.44° C | 57% | 988.9 hPa | - | - | - | - |
| 1777773934 | 14.44° C | 57% | 988.9 hPa | - | - | - | - |
| 1777773040 | 14.44° C | 54% | 989.1 hPa | - | - | - | - |
| 1777773034 | 14.44° C | 54% | 989.1 hPa | - | - | - | - |
| 1777772140 | 14.44° C | 54% | 989.2 hPa | - | - | - | - |
| 1777772134 | 14.44° C | 54% | 989.2 hPa | - | - | - | - |
| 1777771236 | 15° C | 58% | 989.4 hPa | - | - | - | - |
| 1777771233 | 15° C | 58% | 989.4 hPa | - | - | - | - |
| 1777770336 | 15° C | 55% | 989.6 hPa | - | - | - | - |
* Rain since midnight (hover to see other rain measurements)
** Current wind speed in m/s (hover to see current wind gust speed)